Home   Weather   Sorocaba   Past weeks

Flag for Brazil Past Weather in Sorocaba, São Paulo, Brazil — Yesterday and Last 2 Weeks

Now
55 °F

Broken clouds.


Feels Like: 51 °F
Forecast: 52 / 61 °F
Wind: 18 mph from Southeast

Location: Campinas Aeroporto

Current Time: Aug 21, 2017 at 9:17:59 am

Latest Report: Aug 21, 2017 at 8:00 am


Visibility: N/A

Pressure: 30.27 "Hg (28.17 "Hg at 602m altitude)

Humidity: 82%

Dew Point: 50 °F

Location of SorocabaLocation

Past Weather in Sorocaba — Graph

°F

Sorocaba Temperature Yesterday

Maximum temperature yesterday: 75 °F (at 10:35 am)
Minimum temperature yesterday: 61 °F (at 11:20 pm)
Average temperature yesterday: 65 °F

High & Low Weather Summary for the Past Weeks

 TemperatureHumidityPressure
High88 °F (Aug 9, 2:00 pm)100% (Aug 19, 8:00 am)30.27 "Hg (Aug 19, 8:00 am)
Low52 °F (Aug 7, 5:00 am)22% (Aug 9, 4:00 pm)29.86 "Hg (Aug 20, 4:00 am)
Average66 °F71%30.07 "Hg
* Reported Aug 6 8:00 am — Aug 21 8:00 am, Sorocaba. Weather by CustomWeather, © 2017

Note: Actual official high and low records may vary slightly from our data, if they occured in-between our weather recording intervals... More about our weather records

Advertising

Sorocaba Weather History for the Previous 24 Hours

Scroll right to see more
 ConditionsComfort  
Time TempWeatherWind HumidityBarometerVisibility
8:00 am
Mon, Aug 21
55 °FBroken clouds.18 mph82%30.27 "HgN/A
7:00 am55 °FPartly sunny.15 mph82%30.24 "HgN/A
6:00 am55 °FMostly cloudy.12 mph88%30.21 "HgN/A
5:00 am55 °FMostly cloudy.9 mph88%30.18 "HgN/A
4:35 am57 °FMostly cloudy.6 mph82%30.18 "HgN/A
4:00 am57 °FMostly cloudy.12 mph88%30.15 "HgN/A
3:00 am59 °FLight rain. Mostly cloudy.8 mph94%30.15 "HgN/A
2:25 am59 °FLight rain. Mostly cloudy.6 mph94%30.15 "Hg4 mi
2:00 am59 °FLight rain. Fog.7 mph100%30.15 "Hg2 mi
1:00 am59 °FLight rain. Partly cloudy.10 mph94%30.15 "Hg4 mi
12:20 am59 °FRain. Fog.13 mph100%N/A2 mi
12:00 am61 °FLight rain. Fog.7 mph100%N/A1 mi
11:20 pm
Sun, Aug 20
61 °FLight rain. Fog.8 mph100%N/A2 mi
11:00 pm63 °FLight rain. Passing clouds.6 mph94%30.15 "HgN/A
10:00 pm63 °FPassing clouds.No wind94%30.12 "HgN/A
9:00 pm63 °FPassing clouds.3 mph94%30.09 "HgN/A
8:00 pm63 °FLight rain. Passing clouds.3 mph94%30.09 "HgN/A
7:00 pm63 °FLight rain. Mostly cloudy.3 mph94%30.09 "HgN/A
6:00 pm63 °FLight rain. Mostly cloudy.6 mph88%30.07 "Hg4 mi
5:00 pm63 °FThunderstorms. Fog.8 mph94%30.07 "Hg3 mi
4:00 pm63 °FLight rain. Fog.7 mph94%N/A3 mi
3:25 pm63 °FLight rain. Mostly cloudy.10 mph94%30.07 "Hg2 mi
3:00 pm63 °FLight rain. More clouds than sun.10 mph94%30.04 "Hg4 mi
2:25 pm63 °FMostly cloudy.13 mph94%30.04 "Hg4 mi
2:10 pm64 °FRain. Fog.15 mph94%N/A2 mi
2:00 pm66 °FLight rain. Mostly cloudy.17 mph83%30.01 "Hg6 mi
1:00 pm68 °FOvercast.15 mph78%29.98 "HgN/A
12:00 pm73 °FSunny.7 mph65%29.95 "Hg10 mi
11:00 am75 °FSunny.13 mph61%29.98 "Hg10 mi
10:35 am75 °FSunny.13 mph57%29.98 "Hg10 mi
10:00 am73 °FSunny.10 mph65%29.92 "Hg10 mi
9:00 am70 °FSunny.10 mph73%29.92 "Hg10 mi
Weather by CustomWeather, © 2017

See weather overviewHow to use our weather pages